[[{"header":{"parameterUnit":"m.s-1","parameterCategory":1,"la1":30.2992,"la2":30.254,"lo1":-89.0895,"lo2":-89.0443,"dy":0.0025,"dx":0.0025,"nx":19,"ny":19,"refTime":"2026-04-29T03:00:00:Z","depth":0,"parameterNumber":2,"parameterNumberName":"U-component_of_WINDS"},"data":[0,0,0,3.8262,3.8268,3.857,3.8571,3.8973,3.8977,0,0,0,0,0,0,0,0,0,0,0,3.818,3.8183,3.8261,3.8269,3.8569,3.8571,3.8972,3.8977,0,0,0,0,0,0,0,0,0,0,0,3.8179,3.8182,3.8186,3.827,3.8569,3.8571,3.8972,3.8739,0,0,0,0,0,0,0,0,0,0,3.8444,3.8375,3.8181,3.8186,3.8272,3.8569,3.8571,3.8728,3.8754,3.8843,0,3.8921,0,3.8955,3.9005,3.9006,0,0,0,3.8265,3.8354,3.8427,3.8186,3.8275,3.8569,3.8433,3.8742,3.8772,3.8878,3.8927,3.8942,3.8962,3.9007,3.9009,3.9528,3.9531,0,0,3.8248,3.8239,3.8407,3.8447,3.8397,3.8423,3.8442,3.876,3.8815,3.8928,3.8951,3.8969,3.901,3.9013,3.9526,3.9529,0,0,0,3.8203,3.8228,3.8294,3.8431,3.8483,3.8432,3.8454,3.8801,3.8822,3.8955,3.8973,3.9012,3.9017,3.9523,3.9527,3.9645,0,0,0,3.8193,3.8202,3.8287,3.8284,3.8477,3.8645,3.8488,3.88,3.8836,3.8971,3.9013,3.9021,3.952,3.9525,3.9635,3.9703,0,0,0,3.8158,3.8197,3.8243,3.8283,3.8412,3.864,3.868,3.8808,3.8848,3.9006,3.9023,3.9518,3.9524,3.9627,3.9689,3.9834,0,0,0,3.8119,3.8347,3.8245,3.8507,3.8409,3.8709,3.8678,3.8904,3.9053,3.9015,3.952,3.9527,3.9624,3.968,3.9825,3.9954,4.0007,0,0,3.8402,3.8381,3.8536,3.8453,3.8768,3.8664,3.8999,3.9147,3.9174,3.9409,3.9422,3.9638,3.9688,3.9832,4.0309,4.0351,0,0,0,3.8622,3.8733,3.8819,3.8958,3.9073,3.9178,3.9275,3.933,3.9529,3.9291,3.9731,3.9761,3.9846,3.9909,3.9944,4.0018,3.9555,3.9554,3.9554,3.9011,3.9027,3.9283,3.9335,3.9471,3.9567,3.9679,3.977,3.9751,3.9854,3.9924,4.0211,4.0283,4.031,4.0386,3.9994,3.9995,3.9995,3.9996,3.9426,3.9585,3.9548,3.9783,3.98,4.0,4.0101,4.0079,4.0269,4.016,4.0236,4.0115,4.0355,4.0423,4.0005,4.0003,4.0002,4.0001,4.0001,3.9682,3.976,3.9819,4.002,4.0174,4.022,4.0401,4.0412,4.0423,4.0498,4.0572,4.0571,4.0569,4.0533,4.0534,4.0535,4.0536,4.0536,4.0537,3.9923,3.9985,4.0135,4.0274,4.0363,4.0482,4.0578,4.0668,4.077,4.0763,4.0764,4.0734,4.0375,4.0284,4.0553,4.055,4.0548,4.0546,4.0545,4.0336,4.0243,4.0474,4.0563,4.0725,4.0876,4.0886,4.1066,4.1142,4.1231,4.1184,4.0917,4.0898,4.087,4.0795,4.118,4.118,4.118,4.118,4.0551,4.054,4.0777,4.0918,4.1058,4.1088,4.135,4.1427,4.1494,4.1542,4.1487,4.1389,4.1359,4.1358,4.1319,4.1249,4.1741,4.1741,4.1742,4.0805,4.0808,4.1028,4.1086,4.1213,4.1323,4.1569,4.1735,4.1791,4.1765,4.1579,4.1555,4.1396,4.1343,4.1313,4.1253,4.1124,0,0]},{"header":{"parameterUnit":"m.s-1","parameterCategory":1,"la1":30.2992,"la2":30.254,"lo1":-89.0895,"lo2":-89.0443,"dy":0.0025,"dx":0.0025,"nx":19,"ny":19,"refTime":"2026-04-29T03:00:00:Z","depth":0,"parameterNumber":3,"parameterNumberName":"V-component_of_WINDS"},"data":[0,0,0,0.9693,0.9696,0.9847,0.9847,1.0054,1.0056,0,0,0,0,0,0,0,0,0,0,0,0.9654,0.9656,0.9692,0.9696,0.9847,0.9847,1.0054,1.0056,0,0,0,0,0,0,0,0,0,0,0,0.9653,0.9655,0.9657,0.9697,0.9847,0.9847,1.0054,0.9935,0,0,0,0,0,0,0,0,0,0,0.9787,0.9757,0.9655,0.9657,0.9698,0.9846,0.9847,0.993,0.9943,0.9991,0,1.0033,0,1.0048,1.0071,1.0072,0,0,0,0.9693,0.9746,0.978,0.9657,0.9699,0.9846,0.9778,0.9937,0.9952,1.0009,1.0036,1.0044,1.0051,1.0072,1.0073,1.0356,1.0358,0,0,0.9685,0.9685,0.977,0.979,0.9765,0.9773,0.9783,0.9946,0.9977,1.0037,1.0048,1.0055,1.0074,1.0075,1.0355,1.0357,0,0,0,0.9663,0.968,0.971,0.9782,0.9808,0.9777,0.9788,0.997,0.9979,1.0051,1.0057,1.0075,1.0078,1.0353,1.0356,1.0428,0,0,0,0.9658,0.9667,0.9707,0.9709,0.9805,0.989,0.9809,0.9968,0.9986,1.0056,1.0075,1.008,1.0352,1.0354,1.0422,1.0463,0,0,0,0.9642,0.9665,0.9689,0.9709,0.9773,0.9887,0.9906,0.9972,0.9991,1.0072,1.008,1.0351,1.0354,1.0417,1.0455,1.0536,0,0,0,0.9627,0.9754,0.969,0.9834,0.9772,0.993,0.9905,1.0024,1.0102,1.0076,1.0352,1.0355,1.0416,1.045,1.0531,1.0605,1.0635,0,0,0.9787,0.9773,0.9858,0.9805,0.9974,0.9907,1.0088,1.0161,1.017,1.0294,1.0301,1.0424,1.0454,1.0535,1.0807,1.0832,0,0,0,0.9909,0.9969,1.0014,1.0086,1.0142,1.0194,1.0238,1.0264,1.0369,1.0233,1.0476,1.0494,1.0541,1.0577,1.0597,1.0638,1.0372,1.0371,1.0371,1.0138,1.0139,1.0279,1.0297,1.0368,1.041,1.0469,1.0512,1.0496,1.0553,1.059,1.0755,1.0796,1.0811,1.0854,1.0629,1.0629,1.063,1.063,1.0373,1.0459,1.043,1.0554,1.0555,1.0662,1.0708,1.0692,1.0792,1.0727,1.077,1.0699,1.0838,1.0875,1.0635,1.0634,1.0634,1.0633,1.0633,1.0523,1.0564,1.0592,1.0695,1.0775,1.079,1.0886,1.0885,1.0885,1.0926,1.0965,1.0963,1.0962,1.0944,1.0945,1.0946,1.0946,1.0946,1.0947,1.0668,1.0697,1.0776,1.0844,1.0889,1.0949,1.0991,1.1037,1.1087,1.1078,1.1079,1.1056,1.0851,1.0799,1.0956,1.0954,1.0953,1.0952,1.0952,1.0906,1.0851,1.0974,1.1019,1.1097,1.1176,1.1172,1.1264,1.1301,1.1349,1.1317,1.1165,1.1152,1.1135,1.1093,1.1316,1.1316,1.1316,1.1316,1.1032,1.1024,1.1148,1.1219,1.129,1.1297,1.1438,1.1472,1.1499,1.1523,1.149,1.1433,1.1416,1.1413,1.1391,1.1351,1.1635,1.1635,1.1635,1.1178,1.1176,1.1295,1.1317,1.1378,1.1431,1.1563,1.1648,1.1668,1.1648,1.1541,1.1528,1.1436,1.1406,1.1384,1.1349,1.1276,0,0]}]]